"startDT [UTC]","vpos","CH4 [ppm]","stdev(CH4) [ppm]","CO2 [ppm]","stdev(CO2) [ppm]","H2O_reported [%]","stdev(H2O_reported)","CavityPressure [torr]","CavityTemp [C]","OutletValve","CH4_dry [ppm]","CO2_dry [ppm]","DasTemp [C]","EtalonTemp [C]","WarmBoxTemp [C]","MPVPosition","T_ECpre [C]","T_EC1 [C]","T_EC2 [C]","p_inlet [hPa]","p_in [hPa]","p_out [hPa]","T_inlet [C]","RH_inlet [%]","dwpt_inlet [C]","T_vent [C]","RH_vent [%]","dwpt_vent [C]","flow_vent [l min-1]","flow_inlet [l min-1]","dwpt_sample [C]","T_room [C]"
2015-07-18 00:00:00,0.0,2.00490,0.00094,381.264,0.124,1.3651,0.0019,140.005,45.000,32340.06399,2.03295,387.807,33.793,45.068,45.000,0.00,0.10,-272.74,-272.80,2,672,-6,24.3,35.7,8.2,24.0,34.9,7.5,5.73,1.71,1.8,28.0
2015-07-18 00:01:00,0.0,2.00360,0.00136,381.168,0.138,1.3679,0.0022,139.999,45.000,32340.29821,2.03187,387.734,33.807,45.068,45.000,0.00,0.10,-272.74,-272.81,2,672,-6,24.3,35.8,8.2,24.0,34.9,7.5,5.73,1.71,1.8,28.1
2015-07-18 00:02:00,0.0,2.00364,0.00135,381.243,0.139,1.3664,0.0025,139.998,45.000,32339.63767,2.03195,387.797,33.813,45.068,45.000,0.00,0.10,-272.74,-272.80,2,672,-6,24.3,35.6,8.1,24.0,34.9,7.5,5.73,1.70,1.8,28.0
2015-07-18 00:03:00,0.0,2.00287,0.00170,381.326,0.182,1.3560,0.0059,140.000,45.000,32340.57104,2.03065,387.815,33.815,45.068,45.000,0.00,0.10,-272.74,-272.80,2,672,-6,24.3,35.1,7.9,24.0,34.9,7.6,5.73,1.71,1.8,28.0
2015-07-18 00:04:00,0.0,2.00338,0.00053,381.623,0.104,1.3437,0.0034,139.997,45.000,32338.75598,2.03116,388.068,33.836,45.068,45.000,0.00,0.10,-272.75,-272.80,2,672,-6,24.3,34.9,7.8,24.0,34.9,7.6,5.73,1.72,1.8,28.1
2015-07-18 00:05:00,0.0,2.00046,0.00090,381.472,0.200,1.3401,0.0017,140.000,45.000,32342.03976,2.02815,387.908,33.842,45.068,45.000,0.00,0.10,-272.75,-272.80,2,672,-6,24.3,34.9,7.8,24.0,34.9,7.6,5.73,1.75,1.8,28.0
2015-07-18 00:06:00,0.0,2.00020,0.00085,381.602,0.248,1.3396,0.0026,140.000,45.000,32343.17831,2.02772,388.010,33.848,45.068,45.000,0.00,0.10,-272.74,-272.80,2,672,-6,24.3,34.9,7.8,24.0,35.0,7.6,5.73,1.77,1.8,28.0
2015-07-18 00:07:00,0.0,2.00069,0.00161,381.935,0.080,1.3404,0.0018,139.999,45.000,32342.53911,2.02835,388.368,33.856,45.068,45.000,0.00,0.10,-272.74,-272.80,2,672,-6,24.3,34.9,7.8,24.0,35.0,7.6,5.73,1.78,1.8,28.1
2015-07-18 00:08:00,0.0,1.99850,0.00114,381.953,0.213,1.3396,0.0022,140.000,45.000,32344.31420,2.02605,388.372,33.856,45.068,45.000,0.00,0.10,-272.74,-272.80,2,672,-6,24.3,34.9,7.8,24.0,35.0,7.6,5.73,1.78,1.8,28.1
2015-07-18 00:09:00,0.0,1.99802,0.00090,382.280,0.076,1.3386,0.0015,139.999,45.000,32343.63516,2.02560,388.708,33.837,45.068,45.000,0.00,0.10,-272.74,-272.79,2,672,-6,24.3,34.8,7.8,24.0,35.0,7.6,5.73,1.76,1.8,28.1
2015-07-18 00:10:00,0.0,1.99893,0.00144,381.957,0.137,1.3376,0.0017,140.003,45.000,32343.69350,2.02616,388.386,33.860,45.068,45.000,0.00,0.10,-272.74,-272.80,2,672,-6,24.3,34.8,7.8,24.0,35.0,7.6,5.73,1.75,1.8,28.1
2015-07-18 00:11:00,0.0,1.99982,0.00107,382.145,0.095,1.3391,0.0019,140.002,45.000,32343.14334,2.02744,388.569,33.875,45.068,45.000,0.00,0.10,-272.74,-272.81,2,672,-6,24.3,34.9,7.8,24.0,35.0,7.6,5.73,1.72,1.8,28.1
2015-07-18 00:12:00,0.0,1.99914,0.00100,382.206,0.113,1.3404,0.0015,140.003,45.000,32342.23714,2.02677,388.649,33.875,45.068,45.000,0.00,0.10,-272.73,-272.80,2,672,-6,24.3,34.9,7.8,24.0,35.0,7.6,5.73,1.71,1.8,28.0
2015-07-18 00:13:00,0.0,1.99837,0.00093,382.102,0.089,1.3409,0.0021,140.001,45.000,32342.22392,2.02592,388.542,33.875,45.068,45.000,0.00,0.10,-272.74,-272.80,2,672,-6,24.3,34.9,7.9,24.0,35.1,7.6,5.73,1.70,1.9,28.1
2015-07-18 00:14:00,0.0,1.99982,0.00214,381.817,0.119,1.3439,0.0014,139.999,45.000,32343.46889,2.02730,388.272,33.888,45.068,45.000,0.00,0.10,-272.74,-272.80,2,672,-6,24.3,35.1,7.9,24.1,35.1,7.7,5.73,1.71,1.9,28.1
2015-07-18 00:15:00,0.0,2.00103,0.00112,381.813,0.127,1.3510,0.0036,139.998,45.000,32343.88507,2.02873,388.291,33.907,45.068,45.000,0.00,0.10,-272.74,-272.81,2,672,-6,24.4,35.4,8.1,24.0,35.1,7.6,5.73,1.71,1.8,28.0
2015-07-18 00:16:00,0.0,2.00163,0.00132,381.665,0.173,1.3599,0.0027,139.998,45.000,32343.94803,2.02971,388.201,33.918,45.068,45.000,0.00,0.10,-272.74,-272.80,2,672,-6,24.4,35.6,8.1,24.1,35.1,7.7,5.73,1.74,1.8,28.0
2015-07-18 00:17:00,0.0,2.00017,0.00087,381.590,0.124,1.3653,0.0029,140.001,45.000,32343.87528,2.02824,388.138,33.929,45.068,45.000,0.00,0.10,-272.74,-272.80,2,672,-6,24.4,35.6,8.1,24.1,35.0,7.7,5.73,1.75,1.9,28.1
2015-07-18 00:18:00,0.0,2.00013,0.00085,381.662,0.132,1.3686,0.0021,139.997,45.000,32341.20301,2.02836,388.236,33.938,45.068,45.000,0.00,0.10,-272.74,-272.80,2,672,-6,24.4,35.7,8.2,24.1,35.0,7.6,5.73,1.78,1.9,28.2
2015-07-18 00:19:00,0.0,2.00313,0.00091,381.531,0.087,1.3727,0.0022,139.998,45.000,32340.50859,2.03136,388.113,33.926,45.068,45.000,0.00,0.10,-272.74,-272.80,2,672,-6,24.4,35.7,8.2,24.1,35.0,7.6,5.73,1.78,1.9,28.1
2015-07-18 00:20:00,0.0,2.00271,0.00072,381.472,0.139,1.3673,0.0034,140.002,45.000,32345.41750,2.03084,388.040,33.886,45.068,45.000,0.00,0.10,-272.74,-272.80,2,672,-6,24.4,35.4,8.1,24.1,35.0,7.6,5.73,1.78,1.9,28.2
2015-07-18 00:21:00,0.0,2.00289,0.00057,381.334,0.132,1.3598,0.0024,139.996,45.000,32344.91317,2.03093,387.858,33.880,45.068,45.000,0.00,0.10,-272.74,-272.81,2,672,-6,24.4,35.3,8.1,24.1,35.0,7.6,5.73,1.76,1.9,28.1
2015-07-18 00:22:00,0.0,2.00618,0.00164,381.105,0.149,1.3627,0.0035,140.002,45.000,32344.71720,2.03404,387.641,33.877,45.068,45.000,0.00,0.10,-272.74,-272.80,2,672,-6,24.4,35.6,8.2,24.1,35.0,7.6,5.73,1.74,1.9,28.1
2015-07-18 00:23:00,0.0,2.00617,0.00100,381.308,0.088,1.3716,0.0035,140.002,45.000,32345.48042,2.03465,387.887,33.892,45.068,45.001,0.00,0.10,-272.73,-272.80,2,672,-6,24.4,35.9,8.3,24.1,35.0,7.6,5.73,1.72,1.9,28.1
2015-07-18 00:24:00,0.0,2.00531,0.00069,381.094,0.191,1.3787,0.0022,140.000,45.000,32346.02337,2.03371,387.712,33.916,45.068,45.000,0.00,0.10,-272.74,-272.80,2,672,-6,24.4,36.0,8.3,24.1,35.0,7.6,5.73,1.70,1.9,28.1
2015-07-18 00:25:00,0.0,2.00634,0.00062,380.716,0.144,1.3837,0.0034,140.001,45.000,32347.35587,2.03488,387.343,33.932,45.068,45.000,0.00,0.10,-272.74,-272.81,2,672,-6,24.4,36.2,8.4,24.1,35.0,7.6,5.73,1.70,1.9,28.1
2015-07-18 00:26:00,0.0,2.00835,0.00178,380.619,0.117,1.3903,0.0026,139.998,45.000,32344.46966,2.03694,387.279,33.938,45.068,45.000,0.00,0.10,-272.74,-272.80,2,672,-6,24.4,36.4,8.5,24.1,35.0,7.6,5.73,1.70,1.9,28.1
2015-07-18 00:27:00,0.0,2.00968,0.00110,380.695,0.381,1.3960,0.0024,140.005,45.000,32345.33717,2.03850,387.409,33.938,45.068,45.000,0.00,0.10,-272.74,-272.80,2,672,-6,24.4,36.5,8.5,24.1,35.0,7.6,5.73,1.73,1.9,28.1
2015-07-18 00:28:00,0.0,2.01041,0.00135,380.575,0.228,1.4001,0.0021,140.001,45.000,32344.86607,2.03944,387.266,33.938,45.068,45.000,0.00,0.10,-272.74,-272.81,2,672,-6,24.4,36.4,8.5,24.1,35.0,7.6,5.73,1.74,1.9,28.1
2015-07-18 00:29:00,0.0,2.01078,0.00089,380.524,0.175,1.3940,0.0035,140.000,45.000,32345.06588,2.03961,387.215,33.940,45.068,45.000,0.00,0.10,-272.74,-272.80,2,672,-6,24.4,36.2,8.4,24.1,35.0,7.6,5.73,1.76,1.9,28.2
2015-07-18 00:30:00,0.0,2.01182,0.00056,380.518,0.146,1.3909,0.0019,140.003,45.000,32345.57907,2.04068,387.171,33.939,45.068,45.000,0.00,0.10,-272.74,-272.80,2,672,-6,24.4,36.2,8.4,24.1,35.0,7.7,5.73,1.77,1.9,28.1
2015-07-18 00:31:00,0.0,2.01155,0.00070,380.574,0.111,1.3883,0.0020,140.005,45.000,32344.81385,2.04033,387.220,33.939,45.068,45.000,0.00,0.10,-272.75,-272.80,2,672,-6,24.4,36.0,8.4,24.1,35.0,7.7,5.73,1.78,1.9,28.1
2015-07-18 00:32:00,0.0,2.01093,0.00053,380.509,0.164,1.3855,0.0022,139.999,45.000,32344.71987,2.03960,387.153,33.941,45.068,45.000,0.00,0.10,-272.74,-272.80,2,672,-6,24.4,36.0,8.3,24.1,35.0,7.7,5.73,1.77,1.9,28.1
2015-07-18 00:33:00,0.0,2.01064,0.00090,380.373,0.127,1.3844,0.0016,139.998,45.000,32345.43429,2.03928,387.004,33.955,45.068,45.000,0.00,0.10,-272.73,-272.79,2,672,-6,24.4,36.0,8.3,24.1,35.1,7.7,5.73,1.76,1.9,28.2
2015-07-18 00:34:00,0.0,2.01206,0.00052,380.258,0.167,1.3840,0.0028,139.998,45.000,32347.14591,2.04075,386.875,33.968,45.068,45.000,0.00,0.10,-272.74,-272.80,2,672,-6,24.4,35.9,8.3,24.1,35.1,7.7,5.73,1.74,1.9,28.2
2015-07-18 00:35:00,0.0,2.01202,0.00058,380.280,0.224,1.3767,0.0036,140.000,45.000,32346.15390,2.04052,386.881,33.972,45.068,45.000,0.00,0.10,-272.74,-272.80,2,672,-6,24.4,35.6,8.2,24.1,35.1,7.7,5.73,1.72,1.9,28.2
2015-07-18 00:36:00,0.0,2.01158,0.00052,380.317,0.322,1.3700,0.0024,140.001,45.000,32345.02508,2.04001,386.860,33.946,45.068,45.000,0.00,0.10,-272.73,-272.80,2,672,-6,24.4,35.4,8.1,24.1,35.1,7.7,5.73,1.71,1.9,28.2
2015-07-18 00:37:00,0.0,2.01029,0.00053,380.613,0.129,1.3664,0.0013,140.003,45.000,32345.62575,2.03858,387.161,33.952,45.068,45.000,0.00,0.10,-272.74,-272.80,2,672,-6,24.5,35.4,8.2,24.1,35.1,7.7,5.73,1.70,1.9,28.1
2015-07-18 00:38:00,0.0,2.00936,0.00075,380.656,0.234,1.3658,0.0021,140.001,45.000,32342.44863,2.03765,387.187,33.940,45.068,45.000,0.00,0.10,-272.74,-272.81,2,672,-6,24.5,35.4,8.2,24.1,35.1,7.7,5.73,1.70,1.9,28.1
2015-07-18 00:39:00,0.0,2.00944,0.00053,380.542,0.129,1.3705,0.0027,140.002,45.000,32344.35769,2.03780,387.107,33.931,45.068,45.000,0.00,0.10,-272.74,-272.80,2,672,-6,24.4,35.7,8.2,24.1,35.1,7.7,5.73,1.71,1.9,28.1
2015-07-18 00:40:00,0.0,2.00794,0.00059,380.708,0.173,1.3758,0.0026,140.004,45.000,32345.90386,2.03642,387.290,33.926,45.068,45.000,0.00,0.10,-272.73,-272.80,2,671,-6,24.4,35.8,8.3,24.1,35.1,7.8,5.73,1.73,1.9,28.1
2015-07-18 00:41:00,0.0,2.00833,0.00077,380.717,0.154,1.3834,0.0045,140.005,45.000,32345.47080,2.03695,387.343,33.919,45.068,45.000,0.00,0.10,-272.74,-272.81,2,672,-6,24.5,36.1,8.5,24.1,35.1,7.8,5.73,1.75,1.9,28.1
2015-07-18 00:42:00,0.0,2.00681,0.00054,380.563,0.106,1.3961,0.0042,140.001,45.000,32345.36557,2.03567,387.259,33.899,45.068,45.001,0.00,0.10,-272.74,-272.81,2,671,-6,24.5,36.4,8.6,24.1,35.1,7.7,5.73,1.77,1.9,28.2
2015-07-18 00:43:00,0.0,2.00729,0.00030,380.571,0.135,1.4026,0.0039,140.002,45.000,32345.09453,2.03629,387.286,33.912,45.068,45.000,0.00,0.10,-272.74,-272.80,2,671,-6,24.4,36.8,8.7,24.1,35.1,7.8,5.73,1.78,2.0,28.2
2015-07-18 00:44:00,0.0,2.00664,0.00065,380.513,0.201,1.4215,0.0079,139.999,45.000,32345.58542,2.03607,387.341,33.908,45.068,45.000,0.00,0.10,-272.74,-272.80,2,672,-6,24.4,37.5,9.0,24.1,35.2,7.8,5.73,1.78,1.9,28.2
2015-07-18 00:45:00,0.0,2.00620,0.00064,380.328,0.188,1.4368,0.0024,139.997,45.000,32342.19173,2.03591,387.210,33.910,45.068,45.000,0.00,0.10,-272.75,-272.80,2,671,-6,24.5,37.7,9.1,24.1,35.2,7.8,5.73,1.76,1.9,28.2
2015-07-18 00:46:00,0.0,2.00634,0.00054,380.038,0.193,1.4445,0.0029,140.003,45.000,32343.69654,2.03624,386.967,33.931,45.068,45.000,0.00,0.10,-272.74,-272.80,1,671,-6,24.5,38.0,9.2,24.2,35.2,7.8,5.73,1.75,1.9,28.2
2015-07-18 00:47:00,0.0,2.00595,0.00040,380.179,0.109,1.4536,0.0025,140.000,45.000,32343.87445,2.03605,387.145,33.936,45.068,45.000,0.00,0.10,-272.74,-272.80,2,671,-6,24.5,38.1,9.2,24.1,35.2,7.8,5.73,1.73,2.0,28.2
2015-07-18 00:48:00,0.0,2.00521,0.00069,380.041,0.129,1.4573,0.0017,140.001,45.000,32343.63832,2.03542,387.029,33.937,45.068,45.000,0.00,0.10,-272.74,-272.81,2,671,-6,24.5,38.0,9.2,24.2,35.2,7.8,5.73,1.71,1.9,28.2
2015-07-18 00:49:00,0.0,2.00415,0.00050,379.939,0.162,1.4547,0.0027,140.001,45.000,32343.79012,2.03433,386.925,33.938,45.068,45.000,0.00,0.10,-272.74,-272.80,2,671,-6,24.5,37.9,9.1,24.2,35.2,7.8,5.73,1.70,2.0,28.2
2015-07-18 00:50:00,0.0,2.00419,0.00044,380.208,0.127,1.4532,0.0014,140.004,45.000,32344.42216,2.03419,387.166,33.939,45.068,45.000,0.00,0.10,-272.74,-272.79,2,671,-6,24.5,38.0,9.2,24.2,35.2,7.8,5.73,1.70,2.0,28.2
2015-07-18 00:51:00,0.0,2.00425,0.00054,380.008,0.135,1.4589,0.0020,140.000,45.000,32345.46891,2.03441,387.008,33.940,45.068,45.000,0.00,0.10,-272.74,-272.80,2,671,-6,24.5,38.2,9.3,24.2,35.2,7.8,5.73,1.71,2.0,28.2
2015-07-18 00:52:00,0.0,2.00363,0.00068,379.831,0.133,1.4643,0.0026,139.999,45.000,32345.83389,2.03400,386.859,33.943,45.068,45.000,0.00,0.10,-272.74,-272.81,2,671,-6,24.5,38.3,9.3,24.2,35.2,7.8,5.73,1.72,2.0,28.2
2015-07-18 00:53:00,0.0,2.00371,0.00048,379.845,0.132,1.4674,0.0032,139.999,45.000,32344.81453,2.03406,386.876,33.945,45.068,45.000,0.00,0.10,-272.73,-272.80,1,671,-6,24.5,38.5,9.4,24.2,35.3,7.8,5.73,1.73,2.0,28.2
2015-07-18 00:54:00,0.0,2.00272,0.00052,379.866,0.068,1.4749,0.0017,140.001,45.000,32349.18092,2.03323,386.941,33.938,45.068,45.000,0.00,0.10,-272.74,-272.80,2,671,-6,24.5,38.5,9.4,24.2,35.3,7.9,5.73,1.75,2.0,28.1
2015-07-18 00:55:00,0.0,2.00364,0.00065,379.729,0.140,1.4736,0.0023,140.004,45.000,32346.22308,2.03409,386.792,33.939,45.068,45.000,0.00,0.10,-272.74,-272.81,2,671,-6,24.5,38.3,9.4,24.2,35.3,7.9,5.73,1.76,2.0,28.2
2015-07-18 00:56:00,0.0,2.00290,0.00058,379.625,0.184,1.4683,0.0027,139.996,45.000,32343.54118,2.03337,386.661,33.945,45.068,45.000,0.00,0.10,-272.74,-272.80,2,671,-6,24.5,38.3,9.4,24.2,35.4,7.9,5.73,1.78,2.0,28.2
2015-07-18 00:57:00,0.0,2.00186,0.00039,379.654,0.046,1.4703,0.0023,140.001,45.000,32346.89733,2.03223,386.703,33.963,45.068,45.000,0.00,0.10,-272.74,-272.80,2,671,-6,24.5,38.2,9.3,24.2,35.4,7.9,5.73,1.77,2.0,28.2
2015-07-18 00:58:00,0.0,2.00393,0.00074,379.576,0.125,1.4652,0.0023,140.003,45.000,32343.77474,2.03418,386.601,34.000,45.068,45.000,0.00,0.10,-272.74,-272.80,2,671,-6,24.5,38.1,9.3,24.2,35.5,8.0,5.73,1.76,2.0,28.2
2015-07-18 00:59:00,0.0,2.00404,0.00073,379.300,0.110,1.4681,0.0031,140.005,45.000,32346.88668,2.03436,386.326,34.003,45.068,45.000,0.00,0.10,-272.74,-272.80,2,671,-6,24.5,38.3,9.4,24.2,35.6,8.0,5.73,1.75,2.0,28.1
2015-07-18 01:00:00,0.0,2.00569,0.00128,379.185,0.217,1.4679,0.0027,139.994,45.000,32344.90583,2.03607,386.208,34.034,45.068,45.000,0.00,0.10,-272.74,-272.79,1,671,-6,24.5,38.0,9.3,24.2,35.6,8.0,5.73,1.74,2.0,28.2
2015-07-18 01:01:00,0.0,2.00775,0.00064,379.553,0.244,1.4603,0.0031,140.001,45.000,32348.28918,2.03793,386.546,34.025,45.067,45.000,0.00,0.10,-272.75,-272.80,1,671,-6,24.5,37.7,9.1,24.2,35.7,8.0,5.73,1.72,2.0,28.2
2015-07-18 01:02:00,0.0,2.00758,0.00089,379.706,0.161,1.4491,0.0032,140.004,45.000,32349.46986,2.03753,386.648,34.010,45.067,45.000,0.00,0.10,-272.75,-272.80,2,671,-6,24.5,37.5,9.0,24.2,35.8,8.1,5.73,1.71,2.0,28.2
2015-07-18 01:03:00,0.0,2.00909,0.00085,379.582,0.153,1.4420,0.0022,139.996,45.000,32345.08607,2.03892,386.491,34.002,45.068,45.000,0.00,0.10,-272.73,-272.80,2,671,-6,24.5,37.1,8.9,24.2,35.8,8.1,5.73,1.70,2.0,28.2
2015-07-18 01:04:00,0.0,2.01064,0.00052,379.920,0.161,1.4196,0.0135,140.000,45.000,32347.12194,2.04002,386.714,34.000,45.068,45.000,0.00,0.10,-272.73,-272.80,2,671,-6,24.5,35.8,8.4,24.2,35.9,8.1,5.73,1.70,2.0,28.2
2015-07-18 01:05:00,0.0,2.01094,0.00064,380.080,0.190,1.3799,0.0090,140.000,45.000,32348.66322,2.03951,386.676,34.014,45.068,45.000,0.00,0.10,-272.74,-272.80,2,671,-6,24.5,35.0,8.1,24.2,36.0,8.2,5.73,1.71,2.0,28.3
2015-07-18 01:06:00,0.0,2.01151,0.00049,380.078,0.123,1.3560,0.0065,140.001,45.000,32346.52958,2.03960,386.567,34.049,45.068,45.000,0.00,0.10,-272.74,-272.80,2,671,-6,24.5,34.4,7.8,24.2,36.0,8.2,5.73,1.73,2.0,28.3
2015-07-18 01:07:00,0.0,2.01128,0.00071,380.196,0.140,1.3337,0.0065,140.002,45.000,32347.56567,2.03886,386.566,34.063,45.068,45.000,0.00,0.10,-272.73,-272.80,2,671,-6,24.5,33.9,7.6,24.2,36.1,8.2,5.73,1.75,2.0,28.3
2015-07-18 01:08:00,0.0,2.01182,0.00059,380.124,0.121,1.3205,0.0021,140.000,45.000,32344.90910,2.03909,386.431,34.066,45.068,45.000,0.00,0.10,-272.74,-272.81,1,671,-6,24.5,33.8,7.5,24.2,36.1,8.3,5.73,1.77,2.0,28.3
2015-07-18 01:09:00,0.0,2.01156,0.00074,380.201,0.096,1.3208,0.0024,140.003,45.000,32346.70416,2.03888,386.507,34.070,45.068,45.000,0.00,0.10,-272.74,-272.80,1,671,-6,24.6,33.9,7.6,24.2,36.2,8.3,5.73,1.77,2.0,28.3
2015-07-18 01:10:00,0.0,2.01117,0.00049,379.918,0.151,1.3250,0.0030,139.998,45.000,32345.90749,2.03853,386.244,34.083,45.068,45.000,0.00,0.10,-272.74,-272.80,2,671,-6,24.6,34.1,7.7,24.2,36.2,8.3,5.73,1.77,2.0,28.3
2015-07-18 01:11:00,0.0,2.01081,0.00051,379.960,0.073,1.3350,0.0033,140.002,45.000,32348.81008,2.03843,386.329,34.089,45.068,45.000,0.00,0.10,-272.74,-272.80,2,671,-6,24.6,34.4,7.8,24.3,36.3,8.3,5.73,1.77,2.0,28.3
2015-07-18 01:12:00,0.0,2.01042,0.00042,380.004,0.324,1.3387,0.0020,140.000,45.000,32347.87150,2.03807,386.412,34.111,45.068,45.000,0.00,0.10,-272.75,-272.80,2,671,-6,24.6,34.5,7.9,24.2,36.3,8.3,5.73,1.75,2.0,28.3
2015-07-18 01:13:00,0.0,2.01035,0.00040,380.001,0.286,1.3486,0.0029,139.997,45.000,32345.96557,2.03828,386.427,34.106,45.068,45.000,0.00,0.10,-272.74,-272.80,2,671,-6,24.5,34.8,8.0,24.2,36.3,8.3,5.73,1.74,2.0,28.3
2015-07-18 01:14:00,0.0,2.00950,0.00048,379.803,0.259,1.3592,0.0046,140.003,45.000,32348.05228,2.03756,386.297,34.111,45.068,45.000,0.00,0.10,-272.74,-272.80,2,671,-6,24.6,35.2,8.2,24.3,36.3,8.3,5.73,1.73,2.1,28.3
2015-07-18 01:15:00,0.0,2.00894,0.00040,379.956,0.186,1.3724,0.0035,140.001,45.000,32349.52230,2.03735,386.508,34.093,45.068,45.000,0.00,0.10,-272.74,-272.80,1,671,-6,24.6,35.5,8.3,24.3,36.3,8.3,5.73,1.71,2.1,28.3
2015-07-18 01:16:00,0.0,2.00890,0.00050,379.788,0.150,1.3839,0.0034,139.997,45.000,32346.32776,2.03750,386.415,34.076,45.068,45.000,0.00,0.10,-272.74,-272.80,1,671,-6,24.6,35.8,8.4,24.3,36.2,8.3,5.73,1.71,2.1,28.3
2015-07-18 01:17:00,0.0,2.00877,0.00060,379.634,0.122,1.3908,0.0023,139.997,45.000,32345.52917,2.03755,386.277,34.105,45.068,45.000,0.00,0.10,-272.74,-272.80,2,671,-6,24.6,35.9,8.5,24.3,36.2,8.3,5.73,1.71,2.1,28.3
2015-07-18 01:18:00,0.0,2.00900,0.00050,379.657,0.149,1.3958,0.0031,140.002,45.000,32346.53498,2.03790,386.321,34.088,45.068,45.000,0.00,0.10,-272.74,-272.81,2,671,-6,24.6,36.1,8.6,24.3,36.1,8.3,5.73,1.71,2.1,28.4
2015-07-18 01:19:00,0.0,2.00880,0.00036,379.707,0.137,1.4018,0.0023,139.999,45.000,32345.89226,2.03779,386.418,34.104,45.068,45.000,0.00,0.10,-272.74,-272.80,2,671,-7,24.6,36.2,8.6,24.3,36.0,8.2,5.73,1.72,2.1,28.4
2015-07-18 01:20:00,0.0,2.00862,0.00060,379.621,0.104,1.4071,0.0022,140.001,45.000,32348.49385,2.03782,386.343,34.119,45.068,45.000,0.00,0.10,-272.73,-272.80,2,671,-6,24.6,36.3,8.7,24.3,36.0,8.2,5.73,1.73,2.1,28.3
2015-07-18 01:21:00,0.0,2.00787,0.00103,379.706,0.147,1.4098,0.0027,140.001,45.000,32349.59416,2.03700,386.448,34.124,45.068,45.000,0.00,0.10,-272.74,-272.80,2,671,-6,24.6,36.4,8.7,24.3,35.9,8.2,5.73,1.76,2.1,28.4
2015-07-18 01:22:00,0.0,2.00823,0.00041,379.623,0.154,1.4130,0.0023,140.004,45.000,32349.14072,2.03748,386.389,34.125,45.068,45.000,0.00,0.10,-272.75,-272.81,2,671,-7,24.6,36.4,8.7,24.3,35.8,8.1,5.73,1.77,2.1,28.3
2015-07-18 01:23:00,0.0,2.00877,0.00056,379.347,0.205,1.4128,0.0012,139.999,45.000,32347.13457,2.03795,386.095,34.129,45.068,45.000,0.00,0.10,-272.74,-272.81,1,671,-6,24.6,36.3,8.7,24.3,35.7,8.1,5.73,1.77,2.1,28.3
2015-07-18 01:24:00,0.0,2.00905,0.00053,379.665,0.058,1.4069,0.0035,140.002,45.000,32348.38282,2.03822,386.393,34.130,45.068,45.000,0.00,0.10,-272.74,-272.80,1,671,-6,24.6,36.0,8.5,24.3,35.7,8.1,5.73,1.77,2.1,28.3
2015-07-18 01:25:00,0.0,2.00900,0.00077,379.775,0.099,1.3990,0.0023,140.003,45.000,32349.84285,2.03789,386.462,34.125,45.068,45.000,0.00,0.10,-272.74,-272.80,2,671,-6,24.6,35.9,8.5,24.3,35.6,8.1,5.73,1.76,2.1,28.3
2015-07-18 01:26:00,0.0,2.00929,0.00049,379.879,0.076,1.3928,0.0023,139.997,45.000,32350.33708,2.03814,386.534,34.135,45.068,45.000,0.00,0.10,-272.74,-272.80,2,671,-6,24.6,35.6,8.3,24.3,35.6,8.1,5.73,1.75,2.1,28.3
2015-07-18 01:27:00,0.0,2.00944,0.00038,380.054,0.156,1.3815,0.0044,139.995,45.000,32350.52920,2.03806,386.662,34.128,45.068,45.000,0.00,0.10,-272.74,-272.80,2,671,-6,24.6,35.1,8.1,24.3,35.5,8.1,5.73,1.74,2.1,28.3
2015-07-18 01:28:00,0.0,2.00965,0.00053,379.940,0.182,1.3611,0.0069,140.005,45.000,32355.59547,2.03780,386.451,34.125,45.068,45.000,0.00,0.10,-272.74,-272.80,2,671,-7,24.6,34.5,7.9,24.3,35.5,8.1,5.73,1.72,2.1,28.3
2015-07-18 01:29:00,0.0,2.01024,0.00056,379.925,0.166,1.3426,0.0046,140.000,45.000,32351.41358,2.03797,386.340,34.127,45.068,45.000,0.00,0.10,-272.74,-272.80,2,671,-7,24.6,34.1,7.7,24.3,35.5,8.1,5.73,1.71,2.1,28.3
2015-07-18 01:30:00,0.0,2.01092,0.00028,380.092,0.114,1.3320,0.0023,139.998,45.000,32349.83987,2.03842,386.449,34.136,45.068,45.000,0.00,0.10,-272.73,-272.79,1,671,-6,24.6,33.9,7.7,24.3,35.5,8.1,5.73,1.71,2.1,28.4
2015-07-18 01:31:00,0.0,2.01045,0.00055,380.300,0.076,1.3282,0.0022,140.002,45.000,32351.75718,2.03788,386.642,34.151,45.068,45.000,0.00,0.10,-272.73,-272.80,1,671,-7,24.6,33.9,7.7,24.3,35.5,8.1,5.73,1.71,2.1,28.4
2015-07-18 01:32:00,0.0,2.01062,0.00043,380.215,0.081,1.3278,0.0020,139.998,45.000,32350.69307,2.03808,386.559,34.184,45.068,45.000,0.00,0.10,-272.74,-272.81,1,671,-7,24.6,33.8,7.6,24.3,35.5,8.1,5.73,1.71,2.1,28.4
2015-07-18 01:33:00,0.0,2.01105,0.00056,380.169,0.100,1.3222,0.0028,140.003,45.000,32353.45175,2.03835,386.486,34.187,45.068,45.000,0.00,0.10,-272.74,-272.80,2,671,-6,24.7,33.6,7.6,24.3,35.5,8.1,5.73,1.72,2.1,28.4
2015-07-18 01:34:00,0.0,2.01101,0.00033,380.138,0.206,1.3170,0.0029,140.001,45.000,32353.04195,2.03821,386.419,34.178,45.068,45.000,0.00,0.10,-272.73,-272.80,2,671,-7,24.7,33.5,7.5,24.3,35.5,8.1,5.73,1.73,2.2,28.4
2015-07-18 01:35:00,0.0,2.01116,0.00039,380.239,0.093,1.3101,0.0035,139.999,45.000,32353.22203,2.03820,386.495,34.188,45.068,45.000,0.00,0.10,-272.73,-272.81,2,671,-7,24.7,33.3,7.4,24.3,35.4,8.1,5.73,1.75,2.1,28.4
2015-07-18 01:36:00,0.0,2.01106,0.00035,380.111,0.144,1.3065,0.0017,140.001,45.000,32352.54715,2.03807,386.353,34.191,45.067,45.000,0.00,0.10,-272.74,-272.80,2,671,-7,24.6,33.3,7.4,24.3,35.4,8.0,5.73,1.76,2.2,28.4
2015-07-18 01:37:00,0.0,2.01086,0.00044,379.964,0.262,1.3058,0.0017,140.007,45.000,32352.38042,2.03786,386.192,34.194,45.068,45.000,0.00,0.10,-272.74,-272.79,2,671,-6,24.7,33.3,7.5,24.3,35.4,8.1,5.73,1.77,2.1,28.3
2015-07-18 01:38:00,0.0,2.01049,0.00053,380.193,0.190,1.3092,0.0020,140.006,45.000,32354.17118,2.03748,386.437,34.191,45.068,45.000,0.00,0.10,-272.74,-272.80,1,671,-6,24.7,33.4,7.5,24.4,35.4,8.1,5.73,1.77,2.1,28.4
2015-07-18 01:39:00,0.0,2.01025,0.00050,380.342,0.163,1.3129,0.0016,139.999,45.000,32353.25977,2.03733,386.603,34.188,45.068,45.000,0.00,0.10,-272.74,-272.80,1,671,-7,24.7,33.5,7.5,24.4,35.4,8.1,5.73,1.77,2.2,28.4
2015-07-18 01:40:00,0.0,2.01054,0.00053,380.195,0.116,1.3184,0.0038,140.000,45.000,32355.40017,2.03775,386.496,34.189,45.068,45.000,0.00,0.10,-272.74,-272.80,1,671,-7,24.7,33.8,7.6,24.4,35.3,8.1,5.73,1.75,2.2,28.4
2015-07-18 01:41:00,0.0,2.00972,0.00058,380.046,0.112,1.3271,0.0020,140.002,45.000,32354.68650,2.03721,386.373,34.189,45.068,45.000,0.00,0.10,-272.74,-272.80,2,671,-7,24.7,34.0,7.7,24.4,35.3,8.0,5.73,1.74,2.2,28.4
2015-07-18 01:42:00,0.0,2.00975,0.00039,379.859,0.144,1.3356,0.0033,140.000,45.000,32353.90967,2.03733,386.242,34.187,45.068,45.000,0.00,0.10,-272.74,-272.80,2,671,-7,24.7,34.2,7.8,24.4,35.2,8.0,5.73,1.73,2.2,28.5
2015-07-18 01:43:00,0.0,2.00954,0.00045,380.006,0.108,1.3418,0.0018,139.998,45.000,32353.29236,2.03726,386.404,34.183,45.068,45.000,0.00,0.10,-272.74,-272.80,2,671,-7,24.7,34.3,7.9,24.4,35.2,8.0,5.73,1.72,2.2,28.5
2015-07-18 01:44:00,0.0,2.00972,0.00054,380.137,0.166,1.3425,0.0020,140.000,45.000,32353.84641,2.03746,386.565,34.182,45.068,45.000,0.00,0.10,-272.73,-272.80,2,671,-7,24.7,34.2,7.8,24.4,35.1,8.0,5.73,1.71,2.2,28.5
2015-07-18 01:45:00,0.0,2.00942,0.00056,379.966,0.163,1.3418,0.0021,139.997,45.000,32351.38297,2.03715,386.365,34.186,45.068,45.000,0.00,0.10,-272.74,-272.80,1,671,-7,24.7,34.3,7.9,24.4,35.0,7.9,5.73,1.70,2.2,28.5
2015-07-18 01:46:00,0.0,2.00969,0.00032,379.921,0.155,1.3487,0.0023,139.997,45.000,32350.93537,2.03753,386.360,34.187,45.068,45.000,0.00,0.10,-272.74,-272.80,1,671,-7,24.7,34.4,8.0,24.4,35.0,7.9,5.73,1.70,2.2,28.5
2015-07-18 01:47:00,0.0,2.00922,0.00067,380.191,0.124,1.3523,0.0020,140.001,45.000,32351.49626,2.03719,386.644,34.188,45.068,45.000,0.00,0.10,-272.74,-272.80,1,671,-7,24.7,34.4,7.9,24.4,34.9,7.9,5.73,1.72,2.2,28.5
2015-07-18 01:48:00,0.0,2.00952,0.00057,380.010,0.122,1.3500,0.0024,140.003,45.000,32355.06571,2.03745,386.470,34.188,45.068,45.000,0.00,0.10,-272.73,-272.80,1,671,-7,24.7,34.4,7.9,24.4,34.8,7.9,5.73,1.72,2.2,28.4